Flag for Germany Weather past 2 weeks in Munich, Bavaria, Germany

Now
36 °F

Light rain. Overcast.


Feels Like: 25 °F
Forecast: 31 / 33 °F
Wind: 20 mph from West

Location: Munich / Franz Josef Strauss Airport

Current Time: Dec 26, 2014 at 12:40:45 AM

Latest Report: Dec 26, 2014 at 12:20 AM


Visibility: N/A

Pressure: 30.30 "Hg

Humidity: 87%

Dew point: 32 °F

Location of MunichLocation

Historic Weather in Munich — Graph

°F

Munich temperature yesterday

Maximum temperature yesterday: 46 °F (at 12:50 AM)
Minimum temperature yesterday: 36 °F (at 5:50 PM)
Average temperature yesterday: 40 °F

Past Weeks' High & Low Weather Summary

 TemperatureHumidityPressure
High55 °F (Dec 14, 12:20 PM)100% (Dec 11, 4:20 AM)30.48 "Hg (Dec 11, 4:20 AM)
Low25 °F (Dec 24, 2:50 AM)35% (Dec 23, 12:20 PM)29.80 "Hg (Dec 12, 6:20 PM)
Average43 °F77%30.09 "Hg
* Reported Dec 10 11:20 PM — Dec 25 11:20 PM, Munich, Weather by CustomWeather, © 2014

Note: Actual official high and low records may vary slightly from our data, if they occured in-between our weather recording intervals... More about our weather records

Advertising

Munich weather history for previous 24 hours

 ConditionsComfort  
Time TempWeatherWind HumidityBarometerVisibility
11:20 PM
Dec 25
37 °FOvercast.17 mph75%30.27 "HgN/A
10:50 PM37 °FOvercast.20 mph75%30.27 "HgN/A
10:20 PM37 °FOvercast.17 mph75%30.30 "HgN/A
9:50 PM37 °FMostly cloudy.17 mph75%30.30 "HgN/A
9:20 PM37 °FLight rain. Overcast.13 mph75%30.30 "HgN/A
8:50 PM37 °FOvercast.14 mph75%30.30 "HgN/A
8:20 PM37 °FOvercast.14 mph75%30.30 "HgN/A
7:50 PM37 °FOvercast.12 mph75%30.30 "HgN/A
7:20 PM37 °FOvercast.13 mph75%30.30 "HgN/A
6:50 PM36 °FPassing clouds.12 mph81%30.27 "HgN/A
6:20 PM36 °FChilly.8 mph81%30.27 "HgN/A
5:50 PM36 °FPassing clouds.10 mph81%30.27 "HgN/A
5:20 PM37 °FPassing clouds.9 mph75%30.27 "HgN/A
4:20 PM37 °FBroken clouds.13 mph75%30.27 "HgN/A
3:50 PM39 °FPartly sunny.12 mph75%30.27 "HgN/A
3:20 PM39 °FPartly sunny.7 mph75%30.24 "HgN/A
2:50 PM39 °FPartly sunny.9 mph75%30.24 "HgN/A
2:20 PM39 °FPartly sunny.9 mph75%30.24 "HgN/A
1:50 PM39 °FBroken clouds.8 mph75%30.24 "HgN/A
1:20 PM39 °FPartly sunny.10 mph75%30.24 "HgN/A
12:50 PM39 °FPartly sunny.9 mph75%30.24 "HgN/A
12:20 PM39 °FPartly sunny.8 mph75%30.24 "HgN/A
11:50 AM39 °FPartly sunny.9 mph75%30.24 "HgN/A
11:20 AM39 °FPartly sunny.10 mph81%30.24 "HgN/A
10:50 AM39 °FPartly sunny.13 mph81%30.24 "HgN/A
10:20 AM39 °FLight rain. Broken clouds.10 mph87%30.24 "HgN/A
9:50 AM39 °FDrizzle. Broken clouds.7 mph93%30.24 "HgN/A
9:20 AM39 °FDrizzle. Partly sunny.6 mph93%30.21 "HgN/A
8:50 AM39 °FPartly sunny.6 mph93%30.21 "HgN/A
8:20 AM39 °FDrizzle. Partly sunny.9 mph93%30.21 "Hg5 mi
7:50 AM41 °FPartly cloudy.16 mph81%30.18 "HgN/A
7:20 AM43 °FPassing clouds.21 mph87%30.15 "HgN/A
6:50 AM43 °FPassing clouds.16 mph81%30.15 "HgN/A
6:20 AM43 °FPartly cloudy.17 mph81%30.15 "HgN/A
5:50 AM45 °FPassing clouds.21 mph81%30.15 "HgN/A
5:20 AM45 °FOvercast.18 mph81%30.15 "HgN/A
4:50 AM45 °FOvercast.20 mph76%30.15 "HgN/A
4:20 AM43 °FLight rain. Overcast.18 mph81%30.15 "HgN/A
3:50 AM45 °FOvercast.22 mph76%30.15 "HgN/A
3:20 AM45 °FLight rain. Passing clouds.22 mph76%30.15 "HgN/A
2:50 AM45 °FLight rain. Passing clouds.22 mph76%30.15 "HgN/A
2:20 AM45 °FLight rain. Passing clouds.22 mph76%30.15 "HgN/A
1:50 AM46 °FLight rain. Passing clouds.21 mph66%30.15 "HgN/A
1:20 AM46 °FLight rain. Passing clouds.20 mph66%30.15 "HgN/A
12:50 AM46 °FPassing clouds.22 mph66%30.15 "HgN/A
12:20 AM45 °FPassing clouds.21 mph66%30.15 "HgN/A
Weather by CustomWeather, © 2014

See weather overviewHow to use our weather pages